Date String (YYYY-MM-DD hh:mm:ss) UTC,Instrument flags,absolute air pressure of the measurement (hPa),sample flow rate (lpm),inlet stack bypass flow (lpm),air temperature of the measurement (°C),ambient temperature measured by the external sensor (°C),aerosol sample conditioner tube jacket temperature (°C),OPC LED temperature (°C),internal box temperature (°C),relative humidity of the measurement (%),span deviation,mass concentration of particles derived from Lorenz-Mie calculation of OPC scattering (μg/m³),mass concentration of particles derived from Lorenz-Mie calculation of OPC scattering (μg/m³),mass concentration of particles derived from Lorenz-Mie calculation of OPC scattering (μg/m³)
DateTimeUTC,F1_M11,P_M11,Q1_M11,Q2_M11,T1_M11,T2_M11,T3_M11,T4_M11,T5_M11,U1_M11,ZSPAN_M11,X0_M11,X2_M11,X1_M11
2024-01-30 02:00:00,SystemResetWarning,0837.4,5.00,000.00,025.7,024.6,000.0,034.0,027.2,14.5,0000.0,0010.50,0004.08,0003.45
2024-01-30 02:01:00,SystemResetWarning,0837.4,5.00,000.00,025.8,024.6,000.0,034.0,027.2,14.5,0000.0,0010.29,0004.02,0003.40
2024-01-30 02:02:00,SystemResetWarning,0837.4,5.00,000.00,025.8,024.6,000.0,034.0,027.2,14.5,0000.0,0009.60,0004.00,0003.37
2024-01-30 02:03:00,SystemResetWarning,0837.4,5.00,000.00,025.8,024.6,000.0,034.0,027.2,14.5,0000.0,0010.13,0003.93,0003.33
2024-01-30 02:04:00,SystemResetWarning,0837.4,5.00,000.00,025.8,024.6,000.0,034.0,027.2,14.5,0000.0,0010.25,0003.90,0003.29
2024-01-30 02:05:00,SystemResetWarning,0837.4,5.00,000.00,025.8,024.7,000.0,034.0,027.2,14.5,0000.0,0010.09,0003.83,0003.24
2024-01-30 02:06:00,SystemResetWarning,0837.4,5.01,000.00,025.8,024.7,000.0,034.0,027.3,14.5,0000.0,0009.81,0003.79,0003.18
2024-01-30 02:07:00,SystemResetWarning,0837.4,5.00,000.00,025.8,024.7,000.0,034.0,027.3,14.5,0000.0,0009.76,0003.73,0003.13
2024-01-30 02:08:00,SystemResetWarning,0837.4,5.00,000.00,025.8,024.7,000.0,034.0,027.3,14.4,0000.0,0009.90,0003.75,0003.10
2024-01-30 02:09:00,SystemResetWarning,0837.4,5.00,000.00,025.8,024.7,000.0,034.0,027.3,14.4,0000.0,0010.07,0003.76,0003.07
2024-01-30 02:10:00,SystemResetWarning,0837.5,5.00,000.00,025.8,024.7,000.0,034.1,027.3,14.3,0000.0,0010.38,0003.79,0003.04
2024-01-30 02:11:00,SystemResetWarning,0837.5,5.00,000.00,025.9,024.7,000.0,034.1,027.3,14.3,0000.0,0010.79,0003.83,0003.07
2024-01-30 02:12:00,SystemResetWarning,0837.5,5.00,000.00,025.9,024.7,000.0,034.1,027.3,14.3,0000.0,0010.85,0003.80,0003.06
2024-01-30 02:13:00,SystemResetWarning,0837.5,5.00,000.00,025.9,024.7,000.0,034.1,027.3,14.4,0000.0,0010.85,0003.77,0003.05
2024-01-30 02:14:00,SystemResetWarning,0837.4,4.99,000.00,025.9,024.7,000.0,034.1,027.3,14.4,0000.0,0010.44,0003.76,0003.04
2024-01-30 02:15:00,SystemResetWarning,0837.5,4.99,000.00,025.9,024.8,000.0,034.1,027.3,14.3,0000.0,0009.86,0003.69,0003.01
2024-01-30 02:16:00,SystemResetWarning,0837.5,5.00,000.00,025.9,024.8,000.0,034.1,027.3,14.4,0000.0,0008.99,0003.64,0002.98
2024-01-30 02:17:00,SystemResetWarning,0837.5,5.00,000.00,025.9,024.8,000.0,034.1,027.3,14.4,0000.0,0008.76,0003.63,0002.99
2024-01-30 02:18:00,SystemResetWarning,0837.6,5.00,000.00,025.9,024.7,000.0,034.1,027.3,14.3,0000.0,0008.90,0003.64,0003.00
2024-01-30 02:19:00,SystemResetWarning,0837.5,5.00,000.00,025.9,024.7,000.0,034.1,027.3,14.3,0000.0,0008.88,0003.62,0002.99
2024-01-30 02:20:00,SystemResetWarning,0837.5,5.00,000.00,025.9,024.7,000.0,034.1,027.3,14.3,0000.0,0008.62,0003.55,0002.96
2024-01-30 02:21:00,SystemResetWarning,0837.5,5.00,000.00,025.9,024.7,000.0,034.1,027.3,14.4,0000.0,0008.53,0003.49,0002.93
2024-01-30 02:22:00,SystemResetWarning,0837.6,5.00,000.00,025.9,024.7,000.0,034.1,027.3,14.3,0000.0,0008.65,0003.45,0002.93
2024-01-30 02:23:00,SystemResetWarning,0837.6,5.01,000.00,025.9,024.7,000.0,034.1,027.3,14.3,0000.0,0008.47,0003.45,0002.92
2024-01-30 02:24:00,SystemResetWarning,0837.6,5.00,000.00,025.9,024.7,000.0,034.1,027.3,14.3,0000.0,0008.38,0003.44,0002.91
2024-01-30 02:25:00,SystemResetWarning,0837.6,5.00,000.00,025.9,024.7,000.0,034.1,027.3,14.3,0000.0,0009.13,0003.43,0002.88
2024-01-30 02:26:00,SystemResetWarning,0837.6,5.00,000.00,025.9,024.7,000.0,034.1,027.3,14.3,0000.0,0009.78,0003.45,0002.88
2024-01-30 02:27:00,SystemResetWarning,0837.6,5.00,000.00,025.9,024.7,000.0,034.1,027.3,14.3,0000.0,0010.12,0003.47,0002.90
2024-01-30 02:28:00,SystemResetWarning,0837.6,4.99,000.00,025.9,024.7,000.0,034.1,027.3,14.3,0000.0,0009.99,0003.44,0002.90
2024-01-30 02:29:00,SystemResetWarning,0837.6,5.00,000.00,025.9,024.7,000.0,034.1,027.3,14.3,0000.0,0010.11,0003.40,0002.86
2024-01-30 02:30:00,SystemResetWarning,0837.6,5.00,000.00,025.9,024.7,000.0,034.1,027.3,14.2,0000.0,0010.05,0003.39,0002.85
2024-01-30 02:31:00,SystemResetWarning,0837.6,5.00,000.00,025.9,024.7,000.0,034.1,027.3,14.2,0000.0,0010.13,0003.46,0002.89
2024-01-30 02:32:00,SystemResetWarning,0837.6,5.00,000.00,025.9,024.7,000.0,034.1,027.3,14.2,0000.0,0010.86,0003.48,0002.91
2024-01-30 02:33:00,SystemResetWarning,0837.6,5.00,000.00,025.9,024.7,000.0,034.2,027.3,14.2,0000.0,0010.39,0003.48,0002.94
2024-01-30 02:34:00,SystemResetWarning,0837.6,5.00,000.00,025.9,024.7,000.0,034.2,027.3,14.2,0000.0,0010.44,0003.49,0002.96
2024-01-30 02:35:00,SystemResetWarning,0837.7,5.01,000.00,025.9,024.7,000.0,034.2,027.3,14.2,0000.0,0011.24,0003.50,0002.95
2024-01-30 02:36:00,SystemResetWarning,0837.7,5.00,000.00,025.9,024.7,000.0,034.2,027.3,14.2,0000.0,0010.96,0003.50,0002.96
2024-01-30 02:37:00,SystemResetWarning,0837.7,5.00,000.00,025.9,024.7,000.0,034.2,027.3,14.2,0000.0,0010.30,0003.52,0002.96
2024-01-30 02:38:00,SystemResetWarning,0837.7,5.00,000.00,025.9,024.6,000.0,034.2,027.3,14.2,0000.0,0009.89,0003.49,0002.95
2024-01-30 02:39:00,SystemResetWarning,0837.7,5.00,000.00,025.9,024.6,000.0,034.2,027.3,14.2,0000.0,0009.88,0003.52,0002.95
2024-01-30 02:40:00,SystemResetWarning,0837.8,5.00,000.00,025.9,024.6,000.0,034.2,027.3,14.2,0000.0,0009.59,0003.53,0002.94
2024-01-30 02:41:00,SystemResetWarning,0837.8,5.00,000.00,025.9,024.6,000.0,034.2,027.3,14.2,0000.0,0009.81,0003.53,0002.93
2024-01-30 02:42:00,SystemResetWarning,0837.7,4.99,000.00,025.9,024.6,000.0,034.1,027.3,14.2,0000.0,0009.68,0003.47,0002.88
2024-01-30 02:43:00,SystemResetWarning,0837.7,5.00,000.00,025.9,024.6,000.0,034.1,027.3,14.3,0000.0,0008.87,0003.46,0002.85
2024-01-30 02:44:00,SystemResetWarning,0837.7,5.00,000.00,025.9,024.6,000.0,034.2,027.3,14.3,0000.0,0008.93,0003.44,0002.78
2024-01-30 02:45:00,SystemResetWarning,0837.7,5.00,000.00,025.9,024.6,000.0,034.1,027.3,14.3,0000.0,0008.91,0003.41,0002.72
2024-01-30 02:46:00,SystemResetWarning,0837.8,5.00,000.00,025.9,024.6,000.0,034.1,027.3,14.3,0000.0,0008.27,0003.37,0002.69
2024-01-30 02:47:00,SystemResetWarning,0837.8,5.00,000.00,025.9,024.6,000.0,034.1,027.3,14.3,0000.0,0007.81,0003.36,0002.68
2024-01-30 02:48:00,SystemResetWarning,0837.8,5.00,000.00,025.9,024.6,000.0,034.1,027.3,14.3,0000.0,0008.27,0003.34,0002.66
2024-01-30 02:49:00,SystemResetWarning,0837.8,5.01,000.00,025.9,024.6,000.0,034.1,027.3,14.3,0000.0,0008.35,0003.31,0002.63
2024-01-30 02:50:00,SystemResetWarning,0837.8,5.00,000.00,025.9,024.6,000.0,034.1,027.3,14.3,0000.0,0009.23,0003.28,0002.59
2024-01-30 02:51:00,SystemResetWarning,0837.8,5.00,000.00,025.9,024.6,000.0,034.1,027.3,14.3,0000.0,0009.31,0003.26,0002.56
2024-01-30 02:52:00,SystemResetWarning,0837.7,5.00,000.00,025.9,024.6,000.0,034.1,027.2,14.2,0000.0,0008.95,0003.23,0002.54
2024-01-30 02:53:00,SystemResetWarning,0837.8,5.00,000.00,025.8,024.6,000.0,034.1,027.2,14.2,0000.0,0008.98,0003.19,0002.52
2024-01-30 02:54:00,SystemResetWarning,0837.8,5.00,000.00,025.8,024.6,000.0,034.1,027.2,14.2,0000.0,0009.48,0003.19,0002.51
2024-01-30 02:55:00,SystemResetWarning,0837.8,5.00,000.00,025.8,024.6,000.0,034.1,027.2,14.2,0000.0,0009.26,0003.21,0002.50
2024-01-30 02:56:00,SystemResetWarning,0837.8,5.00,000.00,025.8,024.6,000.0,034.1,027.2,14.2,0000.0,0010.36,0003.23,0002.51
2024-01-30 02:57:00,SystemResetWarning,0837.8,4.98,000.00,025.9,024.6,000.0,034.1,027.2,14.3,0000.0,0011.21,0003.26,0002.50
2024-01-30 02:58:00,SystemResetWarning,0837.8,4.99,000.00,025.8,024.6,000.0,034.1,027.2,14.3,0000.0,0010.84,0003.25,0002.48
2024-01-30 02:59:00,SystemResetWarning,0837.9,5.00,000.00,025.8,024.6,000.0,034.1,027.2,14.3,0000.0,0010.38,0003.22,0002.46
